Weather in Vasai-Virar

India     19°27′28″N   72°48′15″E
temp.,
°C
wind,
m/s
gust,
m/s
humid.,
%
clouds,
%
prec.,
mm/h
press.,
hPa
HPBL,
m
6 march, sat
sat623:30+27ne22410 0.0 101330
02:30+26n22440 0.0 101240
05:30+24ne22430 0.0 101243
08:30+26ese23400 0.0 1015110
11:30+31sw32350 0.0 1015547
14:30+30w55400 0.0 1012331
17:30+29w56500 0.0 1010272
20:30+26nw23660 0.0 101287
7 march, sun
sun723:30+25ne11660 0.0 101372
02:30+24ne22610 0.0 101159
05:30+23ene22590 0.0 101169
08:30+25ne22520 0.0 1014134
11:30+30wnw44380 0.0 1014544
14:30+30wnw56390 0.0 1011418
17:30+28nw57490 0.0 1010315
20:30+25nnw34610 0.0 1012101
8 march, mon
mon823:30+24n22700 0.0 101277
02:30+23ne22660 0.0 1011134
05:30+22ne23680 0.0 1011125
08:30+24ne22590 0.0 1014170
11:30+30nnw34370 0.0 1014608
14:30+29wnw65480 0.0 1011292
17:30+28nw57560 0.0 1009265
20:30+26nnw34580 0.0 101184
9 march, tue
tue923:30+25nnw45610 0.0 1012128
02:30+24n57800 0.0 1010278
05:30+23ene34760 0.0 1011168
08:30+25nne22570 0.0 1014146
11:30+31nnw55380 0.0 1014547
14:30+30nw78490 0.0 1010278
17:30+29nw68520 0.0 1009243
20:30+26n34590 0.0 101177
10 march, wed
wed1023:30+26nw33570 0.0 1012100
02:30+24n46770 0.0 1011226
05:30+23ene22730 0.0 1011100
08:30+25ene11570 0.0 1014116
11:30+30nw44440 0.0 1014552
14:30+29nw66480 0.0 1010345
17:30+28nw57520 0.0 1009222
20:30+26nw45600 0.0 1011105